Find Kosmos-2013

NORAD ID: 19907 Int'l Des: 1989-025 Owner: UNKS Country: SU operational
LEOCIRCULAR

当前视图

正在加载3D地球...

关于 Kosmos-2013

正在加载描述...

即将过境

Passes for default location (London). Set your location on the main map for personalized predictions.

高度历史

Loading altitude history...

两行轨道根数

1 19907U 89025F 26150.38477064 .00000003 00000-0 12973-3 0 9991
2 19907 74.0121 30.3021 0009341 39.5758 74.8319 12.48177473694225
Epoch: May 30, 2026 • Age: 11 hours

当前状态

高度 1495.6 km
速度 7.12 km/s
星下点 -58.09°S, 176.61°E
发射日期 Mar 24, 1989
运行时间 37.1 years
类型 other

技术详情

分类 Payload
质量 60.00 kg
干质量 60.00 kg
总质量 60.00 kg
长度 0.80 m
直径 0.80 m
跨度 0.80 m
形状 Poly
制造商 NPOPM
平台类型 Strela-1 11F625
阶段状态 In Orbit
所有者/国家 UNKS/SU

Most Searched